Regional Weather Roundup
Issued by NWS

Home | Current Version | Previous Version | Text Only | Print | Product List | Glossary Off
Versions: 1 2 3 4 5 6 7 8 9 10 11 12 13 14 15 16 17 18 19 20 21 22 23 24 25 26 27 28 29 30 31 32 33 34 35 36 37 38 39 40 41 42 43 44 45 46 47 48 49 50

000
ASUS43 KOAX 231810
RWRNE

WEATHER ROUNDUP FOR NEBRASKA
NATIONAL WEATHER SERVICE OMAHA NE
100 PM CDT THU OCT 23 2014

NOTES: SATELLITE DATA IS BEING USED TO AUGMENT CLOUD COVER ABOVE
       12000 FEET.
       "FAIR" INDICATES FEW OR NO CLOUDS BELOW 12,000 FEET WITH NO
       SIGNIFICANT WEATHER AND/OR OBSTRUCTIONS TO VISIBILITY.

  * THESE STATIONS DO NOT REPORT WEATHER SUCH AS RAIN...SNOW OR FOG.

NEZ001>004-019>022-054>056-231900-
NEBRASKA PANHANDLE

CITY           SKY/WX    TMP DP  RH WIND       PRES   REMARKS
SCOTTSBLUFF    CLOUDY    63  41  44 CALM      30.07F
6HR MIN TEMP:  30; 6HR MAX TEMP:  63;

ALLIANCE       PTSUNNY   67  32  27 W22       30.05F
6HR MIN TEMP:  25; 6HR MAX TEMP:  67;

CHADRON        CLOUDY    66  37  34 SW14      29.99F
6HR MIN TEMP:  29; 6HR MAX TEMP:  66;

KIMBALL        CLOUDY    66  33  29 SW16      30.11S
SIDNEY         MOSUNNY   70  39  32 S15       30.10F
6HR MIN TEMP:  33; 6HR MAX TEMP:  70;

$$

NEZ057>060-069>072-079>082-231900-
SOUTHWEST NEBRASKA

CITY           SKY/WX    TMP DP  RH WIND       PRES   REMARKS
NORTH PLATTE   MOSUNNY   70  47  43 S10       30.07F
6HR MIN TEMP:  35; 6HR MAX TEMP:  70; 6HR PCP: TRACE;

IMPERIAL       MOSUNNY   72  43  35 SW14      30.09F
6HR MIN TEMP:  37; 6HR MAX TEMP:  72;

LEXINGTON      SUNNY     62  61  96 S9        30.08F
MCCOOK         MOSUNNY   66  51  58 MISG      30.10F
6HR MIN TEMP:  45; 6HR MAX TEMP:  66;

OGALLALA       PTSUNNY   70  46  42 SW3       30.07F
$$

NEZ005>010-023>029-035>040-094-231900-
NORTH CENTRAL NEBRASKA

CITY           SKY/WX    TMP DP  RH WIND       PRES   REMARKS
VALENTINE      SUNNY     70  39  32 SW12      30.00F
6HR MIN TEMP:  30; 6HR MAX TEMP:  70;

AINSWORTH      SUNNY     70  36  28 SW15      30.01F
BROKEN BOW     SUNNY     63  56  78 SW9       30.07F
6HR MIN TEMP:  39; 6HR MAX TEMP:  63;

O`NEILL        SUNNY     69  50  50 SW17      30.03F
ORD            SUNNY     65  52  62 S13       30.05F
6HR MIN TEMP:  37; 6HR MAX TEMP:  65;

THEDFORD       SUNNY     73  45  37 SW14G23   30.04F
$$

NEZ041-046>049-061>064-073>077-083>087-231900-
SOUTH CENTRAL NEBRASKA

CITY           SKY/WX    TMP DP  RH WIND       PRES   REMARKS
GRAND ISLAND   MOSUNNY   58  53  84 SW5       30.10F
6HR MIN TEMP:  45; 6HR MAX TEMP:  59;

AURORA         SUNNY     60  60 100 SW5       30.09F
HASTINGS       FOG       54  52  93 SW3       30.10F VSB 1/4
6HR MIN TEMP:  50; 6HR MAX TEMP:  55;

HEBRON         MOSUNNY   67  60  78 W6        30.08F
HOLDREGE       PTSUNNY   57  56  96 CALM      30.10F
KEARNEY *      CLOUDY    55  54  94 S8        30.11F
YORK           SUNNY     64  55  72 SW3       30.08F
$$

NEZ011>018-030>034-042>045-231900-
NORTHEAST NEBRASKA

CITY           SKY/WX    TMP DP  RH WIND       PRES   REMARKS
NORFOLK        SUNNY     67  50  54 S12       30.05F
6HR MIN TEMP:  39; 6HR MAX TEMP:  67;

ALBION         SUNNY     65  49  56 S9        30.06F
BLAIR          SUNNY     66  53  63 SW3       30.06S
COLUMBUS *     MOSUNNY   57  52  82 SW6       30.09F
FREMONT        SUNNY     68  53  57 CALM      30.06F
TEKAMAH        SUNNY     64  56  75 S3        30.05F
6HR MIN TEMP:  53; 6HR MAX TEMP:  65;

WAYNE          SUNNY     67  50  54 SW9       30.05F
$$

NEZ050>053-065>068-078-088>093-231900-
SOUTHEAST NEBRASKA

CITY           SKY/WX    TMP DP  RH WIND       PRES   REMARKS
LINCOLN        PTSUNNY   64  57  78 SW8       30.09F
6HR MIN TEMP:  53; 6HR MAX TEMP:  65;

OMAHA EPPLEY   SUNNY     64  55  72 SW5       30.06F
6HR MIN TEMP:  59; 6HR MAX TEMP:  65;

BEATRICE       SUNNY     66  58  75 CALM      30.08F
FALLS CITY     MOSUNNY   70  58  65 W5        30.06F
6HR MIN TEMP:  61; 6HR MAX TEMP:  70;

NEBRASKA CITY  SUNNY     67  55  64 CALM      30.07F
PLATTSMOUTH    SUNNY     67  54  62 SW3       30.06F
$$

NEZ044-045-051>053-067-231900-
OMAHA AREA

CITY           SKY/WX    TMP DP  RH WIND       PRES   REMARKS
OMAHA EPPLEY   SUNNY     64  55  72 SW5       30.06F
6HR MIN TEMP:  59; 6HR MAX TEMP:  65;

BLAIR          SUNNY     66  53  63 SW3       30.06S
FREMONT        SUNNY     68  53  57 CALM      30.06F
MILLARD        SUNNY     66  55  68 SW3       30.06F
OFFUTT AFB     SUNNY     68  57  69 W6        30.05F
PLATTSMOUTH    SUNNY     67  54  62 SW3       30.06F
WAHOO          FAIR      67  53  60 S5        30.07F
$$



USA.gov is the U.S. government's official web portal to all federal, state and local government web resources and services.